This is the latest recevied weather packets stored in our database for station/object OK2JCZ-6. If no packets are shown the sender has not sent any weather packets the latest 10 day(s).
| Time | Temp. | Humidity | Pressure | Rain* | Wind** | Luminosity | Snow |
|---|---|---|---|---|---|---|---|
| 1788569003 | 18.89° C | 50% | 1014.8 hPa | 0 mm | - | - | - |
| 1788568703 | 20.56° C | 49% | 1014.5 hPa | 0 mm | - | - | - |
| 1788568403 | 20.56° C | 47% | 1014.1 hPa | 0 mm | - | - | - |
| 1788568103 | 22.22° C | 45% | 1014 hPa | 0 mm | - | - | - |
| 1788567803 | 22.22° C | 44% | 1013.6 hPa | 0 mm | - | - | - |
| 1788567204 | 23.33° C | 39% | 1012.9 hPa | 0 mm | - | - | - |
| 1788566303 | 22.78° C | 39% | 1012.5 hPa | 0 mm | - | - | - |
| 1788566003 | 22.78° C | 39% | 1012.5 hPa | 0 mm | - | - | - |
| 1788565703 | 22.78° C | 39% | 1012.4 hPa | 0 mm | - | - | - |
| 1788565403 | 22.78° C | 39% | 1012.4 hPa | 0 mm | - | - | - |
| 1788565103 | 22.78° C | 39% | 1012.5 hPa | 0 mm | - | - | - |
| 1788564803 | 22.78° C | 39% | 1012.5 hPa | 0 mm | - | - | - |
| 1788564503 | 22.22° C | 39% | 1012.4 hPa | 0 mm | - | - | - |
| 1788564203 | 22.22° C | 39% | 1012.5 hPa | 0 mm | - | - | - |
| 1788563603 | 22.78° C | 39% | 1012.4 hPa | 0 mm | - | - | - |
| 1788563303 | 23.33° C | 38% | 1012.3 hPa | 0 mm | - | - | - |
| 1788563003 | 23.33° C | 38% | 1012.3 hPa | 0 mm | - | - | - |
| 1788562703 | 23.33° C | 38% | 1012.2 hPa | 0 mm | - | - | - |
| 1788562403 | 23.33° C | 38% | 1012.3 hPa | 0 mm | - | - | - |
| 1788562123 | 23.33° C | 38% | 1012.3 hPa | 0 mm | - | - | - |
| 1788561803 | 23.33° C | 38% | 1012.3 hPa | 0 mm | - | - | - |
| 1788561503 | 22.78° C | 38% | 1012.3 hPa | 0 mm | - | - | - |
| 1788561204 | 22.78° C | 39% | 1012.3 hPa | 0 mm | - | - | - |
| 1788560903 | 22.78° C | 38% | 1012.3 hPa | 0 mm | - | - | - |
| 1788560603 | 22.78° C | 39% | 1012.3 hPa | 0 mm | - | - | - |
* Rain latest hour (hover to see other rain measurements)
** Current wind speed in m/s (hover to see current wind gust speed)